SPAINSAT NG I

Last updated on Sun Jun 21 2026 00:03:09 GMT+0000 (Coordinated Universal Time)

1 62852U 25021A 26171.03045817 .00000146 00000+0 00000+0 0 9997 2 62852 0.0178 1.7789 0000223 177.4851 128.9379 1.00271397 4017
UTC large
Height (km)
Speed (km/s)
/
Latitude / Longitude
Inclination (degrees)
Orbital Period (minutes)
Azimuth
Elevation
Range (km)
Doppler Factor

Next 0 passes for location: London (51.5072 / 0.1276)

No passes found over London.
SPAINSAT NG I